When you browse on this site, cookies collect data to enhance your experience and personalize the content and advertising you see.
Visit our Privacy Policy to learn more. By continuing to use the site, you agree to this use of cookies and data.

Hourly Weather Francistown

Today, 2 July, Thursday

Time Temperature Precipitation Wind Pressure Humidity
00:00 +9°C° 0 mm 3 mps 681 mmHg 88%
01:00 +8°C° 0 mm 2 mps 681 mmHg 89%
02:00 +8°C° 0 mm 2 mps 681 mmHg 90%
03:00 +8°C° 0 mm 2 mps 680 mmHg 91%
04:00 +7°C° 0 mm 2 mps 680 mmHg 93%
05:00 +7°C° 0 mm 2 mps 680 mmHg 94%
06:00 +8°C° 0 mm 2 mps 681 mmHg 93%
07:00 +9°C° 0 mm 2 mps 681 mmHg 92%
08:00 +10°C° 0 mm 2 mps 682 mmHg 90%
09:00 +13°C° 0 mm 3 mps 682 mmHg 76%
10:00 +16°C° 0 mm 3 mps 683 mmHg 62%
11:00 +19°C° 0 mm 3 mps 683 mmHg 49%
12:00 +21°C° 0 mm 3 mps 682 mmHg 42%
13:00 +22°C° 0 mm 3 mps 682 mmHg 36%
14:00 +24°C° 0 mm 3 mps 681 mmHg 29%
15:00 +24°C° 0 mm 3 mps 681 mmHg 30%
16:00 +24°C° 0 mm 3 mps 681 mmHg 30%
17:00 +22°C° 0 mm 3 mps 680 mmHg 31%
18:00 +20°C° 0 mm 3 mps 680 mmHg 39%
19:00 +17°C° 0 mm 3 mps 680 mmHg 46%
20:00 +14°C° 0 mm 3 mps 680 mmHg 54%
21:00 +13°C° 0 mm 3 mps 680 mmHg 59%
22:00 +13°C° 0 mm 2 mps 680 mmHg 64%
23:00 +12°C° 0 mm 2 mps 679 mmHg 69%

Tomorrow, 3 July, Friday

Time Temperature Precipitation Wind Pressure Humidity
00:00 +12°C° 0 mm 2 mps 679 mmHg 72%
01:00 +11°C° 0 mm 1 mps 679 mmHg 75%
02:00 +10°C° 0 mm 1 mps 679 mmHg 77%
03:00 +10°C° 0 mm 1 mps 679 mmHg 78%
04:00 +10°C° 0 mm 1 mps 679 mmHg 78%
05:00 +9°C° 0 mm 1 mps 679 mmHg 79%
06:00 +11°C° 0 mm 1 mps 680 mmHg 72%
07:00 +12°C° 0 mm 1 mps 680 mmHg 66%
08:00 +12°C° 0 mm 0 mps 681 mmHg 60%
09:00 +16°C° 0 mm 1 mps 681 mmHg 49%
10:00 +19°C° 0 mm 2 mps 682 mmHg 38%
11:00 +24°C° 0 mm 3 mps 682 mmHg 28%
12:00 +25°C° 0 mm 3 mps 682 mmHg 23%
13:00 +26°C° 0 mm 3 mps 681 mmHg 19%
14:00 +28°C° 0 mm 3 mps 681 mmHg 15%
15:00 +27°C° 0 mm 3 mps 681 mmHg 15%
16:00 +26°C° 0 mm 3 mps 681 mmHg 16%
17:00 +26°C° 0 mm 3 mps 680 mmHg 16%
18:00 +22°C° 0 mm 3 mps 680 mmHg 20%
19:00 +19°C° 0 mm 3 mps 680 mmHg 23%
20:00 +17°C° 0 mm 3 mps 680 mmHg 27%
21:00 +16°C° 0 mm 3 mps 680 mmHg 31%
22:00 +14°C° 0 mm 3 mps 681 mmHg 34%
23:00 +13°C° 0 mm 3 mps 681 mmHg 38%

Day after tomorrow, 4 July, Saturday

Time Temperature Precipitation Wind Pressure Humidity
00:00 +12°C° 0 mm 3 mps 681 mmHg 42%
01:00 +11°C° 0 mm 3 mps 681 mmHg 46%
02:00 +11°C° 0 mm 3 mps 681 mmHg 50%
03:00 +10°C° 0 mm 3 mps 681 mmHg 55%
04:00 +10°C° 0 mm 3 mps 680 mmHg 59%
05:00 +9°C° 0 mm 3 mps 680 mmHg 63%
06:00 +10°C° 0 mm 4 mps 681 mmHg 62%
07:00 +11°C° 0 mm 4 mps 682 mmHg 62%
08:00 +12°C° 0 mm 5 mps 682 mmHg 61%
09:00 +14°C° 0 mm 5 mps 683 mmHg 53%
10:00 +17°C° 0 mm 6 mps 683 mmHg 44%
11:00 +21°C° 0 mm 6 mps 684 mmHg 36%
12:00 +22°C° 0 mm 6 mps 683 mmHg 32%
13:00 +24°C° 0 mm 6 mps 683 mmHg 28%
14:00 +26°C° 0 mm 6 mps 682 mmHg 23%
15:00 +25°C° 0 mm 5 mps 682 mmHg 25%
16:00 +23°C° 0 mm 5 mps 681 mmHg 27%
17:00 +22°C° 0 mm 4 mps 681 mmHg 29%
18:00 +20°C° 0 mm 4 mps 681 mmHg 37%
19:00 +17°C° 0 mm 4 mps 681 mmHg 46%
20:00 +14°C° 0 mm 3 mps 681 mmHg 54%
21:00 +12°C° 0 mm 3 mps 681 mmHg 61%
22:00 +11°C° 0 mm 3 mps 681 mmHg 67%
23:00 +10°C° 0 mm 3 mps 681 mmHg 73%

5 July, Sunday

Time Temperature Precipitation Wind Pressure Humidity
00:00 +10°C° 0 mm 3 mps 680 mmHg 77%
01:00 +9°C° 0 mm 2 mps 680 mmHg 80%
02:00 +9°C° 0 mm 2 mps 680 mmHg 84%
03:00 +8°C° 0 mm 2 mps 680 mmHg 84%
04:00 +8°C° 0 mm 2 mps 679 mmHg 84%
05:00 +8°C° 0 mm 2 mps 679 mmHg 84%
06:00 +9°C° 0 mm 2 mps 680 mmHg 78%
07:00 +10°C° 0 mm 2 mps 680 mmHg 72%
08:00 +12°C° 0 mm 1 mps 681 mmHg 66%
09:00 +16°C° 0 mm 2 mps 681 mmHg 52%
10:00 +19°C° 0 mm 3 mps 682 mmHg 39%
11:00 +23°C° 0 mm 4 mps 682 mmHg 25%
12:00 +25°C° 0 mm 4 mps 682 mmHg 21%
13:00 +26°C° 0 mm 4 mps 681 mmHg 17%
14:00 +28°C° 0 mm 4 mps 681 mmHg 13%
15:00 +27°C° 0 mm 4 mps 681 mmHg 15%
16:00 +26°C° 0 mm 4 mps 680 mmHg 16%
17:00 +25°C° 0 mm 4 mps 680 mmHg 18%
18:00 +21°C° 0 mm 3 mps 680 mmHg 23%
19:00 +19°C° 0 mm 3 mps 679 mmHg 28%
20:00 +16°C° 0 mm 3 mps 679 mmHg 34%
21:00 +15°C° 0 mm 2 mps 679 mmHg 37%
22:00 +14°C° 0 mm 2 mps 679 mmHg 40%
23:00 +13°C° 0 mm 2 mps 679 mmHg 43%

6 July, Monday

Time Temperature Precipitation Wind Pressure Humidity
00:00 +12°C° 0 mm 2 mps 679 mmHg 45%
01:00 +12°C° 0 mm 2 mps 679 mmHg 47%
02:00 +10°C° 0 mm 2 mps 678 mmHg 49%
03:00 +10°C° 0 mm 2 mps 678 mmHg 51%
04:00 +10°C° 0 mm 1 mps 678 mmHg 53%
05:00 +10°C° 0 mm 1 mps 678 mmHg 55%
06:00 +11°C° 0 mm 1 mps 679 mmHg 51%
07:00 +12°C° 0 mm 1 mps 680 mmHg 47%
08:00 +13°C° 0 mm 1 mps 680 mmHg 43%
09:00 +16°C° 0 mm 2 mps 681 mmHg 36%
10:00 +20°C° 0 mm 4 mps 681 mmHg 29%
11:00 +23°C° 0 mm 5 mps 682 mmHg 22%
12:00 +25°C° 0 mm 5 mps 681 mmHg 19%
13:00 +27°C° 0 mm 5 mps 681 mmHg 16%
14:00 +28°C° 0 mm 5 mps 680 mmHg 13%
15:00 +27°C° 0 mm 4 mps 680 mmHg 15%
16:00 +26°C° 0 mm 4 mps 680 mmHg 16%
17:00 +25°C° 0 mm 3 mps 679 mmHg 17%
18:00 +22°C° 0 mm 3 mps 679 mmHg 22%
19:00 +19°C° 0 mm 3 mps 679 mmHg 27%
20:00 +16°C° 0 mm 3 mps 679 mmHg 32%
21:00 +14°C° 0 mm 3 mps 679 mmHg 35%
22:00 +12°C° 0 mm 3 mps 679 mmHg 37%
23:00 +11°C° 0 mm 3 mps 679 mmHg 39%

7 July, Tuesday

Time Temperature Precipitation Wind Pressure Humidity
00:00 +12°C° 0 mm 2 mps 678 mmHg 40%
01:00 +10°C° 0 mm 2 mps 678 mmHg 41%
02:00 +9°C° 0 mm 2 mps 678 mmHg 42%
03:00 +9°C° 0 mm 2 mps 678 mmHg 44%
04:00 +9°C° 0 mm 2 mps 678 mmHg 46%
05:00 +8°C° 0 mm 2 mps 678 mmHg 48%
06:00 +9°C° 0 mm 2 mps 678 mmHg 45%
07:00 +10°C° 0 mm 2 mps 679 mmHg 42%
08:00 +13°C° 0 mm 2 mps 680 mmHg 38%
09:00 +16°C° 0 mm 2 mps 680 mmHg 31%
10:00 +20°C° 0 mm 2 mps 681 mmHg 24%
11:00 +25°C° 0 mm 3 mps 681 mmHg 16%
12:00 +26°C° 0 mm 3 mps 680 mmHg 14%
13:00 +28°C° 0 mm 3 mps 680 mmHg 11%
14:00 +29°C° 0 mm 3 mps 679 mmHg 9%
15:00 +28°C° 0 mm 3 mps 679 mmHg 10%
16:00 +28°C° 0 mm 3 mps 679 mmHg 10%
17:00 +27°C° 0 mm 3 mps 678 mmHg 11%
18:00 +24°C° 0 mm 3 mps 678 mmHg 15%
19:00 +20°C° 0 mm 3 mps 678 mmHg 20%
20:00 +16°C° 0 mm 3 mps 678 mmHg 24%
21:00 +14°C° 0 mm 3 mps 678 mmHg 28%
22:00 +13°C° 0 mm 3 mps 678 mmHg 31%
23:00 +12°C° 0 mm 3 mps 678 mmHg 35%
Show more